Flag for Estonia Weather past 2 weeks in Tartu, Estonia

Now
37 °F

Light rain. Low clouds.


Feels Like: 37 °F
Forecast: 37 / 43 °F
Wind: 2 mph from Northwest

Location: Tartu/Ulenurme

Current Time: Mar 29, 2015 at 1:09:56 AM

Latest Report: Mar 28, 2015 at 11:50 PM


Visibility: 5 mi

Pressure: 29.92 "Hg

Humidity: 93%

Dew point: 36 °F

Location of TartuLocation

Historic Weather in Tartu — Graph

°F

Tartu temperature yesterday

Maximum temperature yesterday: 46 °F (at 11:50 AM)
Minimum temperature yesterday: 37 °F (at 11:50 PM)
Average temperature yesterday: 43 °F

Past Weeks' High & Low Weather Summary

 TemperatureHumidityPressure
High57 °F (Mar 17, 2:50 PM)93% (Mar 20, 8:50 PM)31.04 "Hg (Mar 20, 8:50 PM)
Low19 °F (Mar 22, 5:50 AM)20% (Mar 18, 1:50 PM)29.47 "Hg (Mar 24, 2:50 AM)
Average36 °F60%30.28 "Hg
* Reported Mar 13 11:50 PM — Mar 28 11:50 PM, Tartu, Weather by CustomWeather, © 2015

Note: Actual official high and low records may vary slightly from our data, if they occured in-between our weather recording intervals... More about our weather records

Advertising

Tartu weather history for previous 24 hours

 ConditionsComfort  
Time TempWeatherWind HumidityBarometerVisibility
11:50 PM
Sat, Mar 28
37 °FLight rain. Low clouds.2 mph93%29.92 "Hg5 mi
9:50 PM39 °FDrizzle. Low clouds.7 mph93%29.92 "HgN/A
8:50 PM41 °FLight rain. Mostly cloudy.8 mph87%29.92 "Hg3 mi
7:50 PM41 °FDrizzle. Dense fog.5 mph93%29.92 "Hg1 mi
6:50 PM43 °FDrizzle. Overcast.7 mph87%29.92 "Hg1 mi
5:50 PM43 °FLight rain. More clouds than sun.9 mph81%29.92 "Hg5 mi
4:50 PM45 °FLight rain. Mostly cloudy.8 mph71%29.92 "Hg6 mi
3:50 PM46 °FBroken clouds.14 mph66%29.92 "HgN/A
2:50 PM46 °FMore clouds than sun.13 mph66%29.92 "HgN/A
1:50 PM46 °FMore clouds than sun.12 mph66%29.92 "HgN/A
12:50 PM46 °FMore clouds than sun.14 mph66%29.92 "HgN/A
11:50 AM46 °FBroken clouds.14 mph66%29.92 "HgN/A
10:50 AM45 °FPartly sunny.12 mph71%29.92 "HgN/A
9:50 AM45 °FPartly sunny.10 mph66%29.92 "HgN/A
8:50 AM43 °FPartly sunny.12 mph66%29.92 "HgN/A
7:50 AM43 °FMostly cloudy.13 mph66%29.92 "HgN/A
6:50 AM41 °FOvercast.15 mph70%29.92 "HgN/A
5:50 AM41 °FOvercast.14 mph70%29.92 "HgN/A
4:50 AM43 °FMostly cloudy.13 mph61%29.95 "HgN/A
3:50 AM43 °FPassing clouds.13 mph61%29.95 "HgN/A
2:50 AM43 °FPassing clouds.14 mph66%29.95 "HgN/A
1:50 AM43 °FPassing clouds.12 mph66%29.98 "HgN/A
Weather by CustomWeather, © 2015

See weather overviewHow to use our weather pages